Regional Weather Roundup
Issued by NWS

Home | Current Version | Previous Version | Graphics & Text | Print | Product List | Glossary On
Versions: 1 2 3 4 5 6 7 8 9 10 11 12 13 14 15 16 17 18 19 20 21 22 23 24 25 26 27 28 29 30 31 32 33 34 35 36 37 38 39 40 41 42 43 44 45 46 47 48 49 50
000
ASUS45 KCYS 280610
RWRWY

WYOMING REGIONAL WEATHER ROUNDUP
NATIONAL WEATHER SERVICE CHEYENNE WY
1100 PM MST THU NOV 27 2014

NOTE:  "FAIR" INDICATES FEW OR NO CLOUDS BELOW 12,000 FEET
WITH NO SIGNIFICANT WEATHER AND/OR OBSTRUCTIONS TO VISIBILITY.

WYZ001-280700-
YELLOWSTONE NATIONAL PARK

CITY           SKY/WX    TMP DP  RH WIND       PRES   REMARKS
LK YELLOWSTONE   N/A     33  29  85 CALM      30.09F
6HR MIN TEMP:  32; 6HR MAX TEMP:  37;

W YELLOWSTONE  NOT AVBL

$$
WYZ002>013-054>058-071-098>099-280700-
NORTHERN WYOMING

CITY           SKY/WX    TMP DP  RH WIND       PRES   REMARKS
JACKSON        CLOUDY    39  28  65 SW9       30.08F WCI  33
CODY           PTCLDY    54  25  32 SE9G30    29.84S
GREYBULL       PTCLDY    22  21  96 E9        29.88F WCI  12
6HR MIN TEMP:  19; 6HR MAX TEMP:  28;

WORLAND        PTCLDY    24  21  88 E9        29.89F WCI  14
6HR MIN TEMP:  21; 6HR MAX TEMP:  36;

SHERIDAN       CLOUDY    45  27  49 NE5       29.77F
6HR MIN TEMP:  40; 6HR MAX TEMP:  55;

BUFFALO        CLOUDY    46  24  42 SE9       29.83F
6HR MIN TEMP:  38; 6HR MAX TEMP:  50;

GILLETTE       MOCLDY    44  30  57 SW16      29.82F
6HR MIN TEMP:  43; 6HR MAX TEMP:  47;

HULETT           N/A    N/A N/A N/A MISG        N/A
NEWCASTLE      FAIR      34  27  75 NE3       29.90F

$$
WYZ014>020-022>026-101>103-280700-
CENTRAL WYOMING

CITY           SKY/WX    TMP DP  RH WIND       PRES   REMARKS
BIG PINEY      PTCLDY   N/A N/A N/A CALM      30.16F
PINEDALE       PTCLDY    18  18 100 W5        30.17F WCI  11
DUBOIS         FAIR      37  23  56 NW20      30.05F WCI  27
LANDER         PTCLDY    41  24  51 N8        29.97F
6HR MIN TEMP:  37; 6HR MAX TEMP:  55;

RIVERTON       CLEAR     38  24  57 E5        29.99F WCI  34
6HR MIN TEMP:  36; 6HR MAX TEMP:  53;

CASPER         PTCLDY    42  25  50 SW13      29.99F
6HR MIN TEMP:  42; 6HR MAX TEMP:  46;

DOUGLAS        MOCLDY    52  25  35 W13G20    29.95F
6HR MIN TEMP:  40; 6HR MAX TEMP:  53;


$$
WYZ021-027>030-104>119-280700-
SOUTHERN WYOMING

CITY           SKY/WX    TMP DP  RH WIND       PRES   REMARKS
EVANSTON       MOCLDY    39  20  46 SW14      30.19F WCI  31
6HR MIN TEMP:  38; 6HR MAX TEMP:  45;

FORT BRIDGER   FAIR      46  19  33 SW18      30.19F
ROCK SPRINGS   PTCLDY    37  20  50 W12       30.16S WCI  29
6HR MIN TEMP:  37; 6HR MAX TEMP:  45;

DIXON          FAIR      46  20  37 S14       30.22F
RAWLINS        PTCLDY    41  19  41 VRB3      30.13F
6HR MIN TEMP:  40; 6HR MAX TEMP:  45;

SARATOGA       FAIR      39  23  52 S9        30.18S WCI  33
LARAMIE        PTCLDY    42  20  41 SW17      30.15F
6HR MIN TEMP:  37; 6HR MAX TEMP:  44;

CHEYENNE       CLEAR     50  20  30 W29G39    30.03F
6HR MIN TEMP:  48; 6HR MAX TEMP:  51;

TORRINGTON     CLEAR     48  24  39 CALM      29.94S
6HR MIN TEMP:  46; 6HR MAX TEMP:  54;

PINE BLUFFS    FAIR      46  23  39 W13       30.02R

$$


USA.gov is the U.S. government's official web portal to all federal, state and local government web resources and services.